FENGYUN 1C DEB *, 47003

Orbit data source: Space-Track

FENGYUN 1C DEB *, 47003 is space debris in SSO originally from a launch on Mon, 10 May 1999 UTC launched from the Taiyaun Space Center, China (TSC). Fengyun 1C debris stems from the Chinese weather satellite Fengyun-1C, which was intentionally destroyed by a Chinese anti-satellite missile in 2007. This event dramatically increased the amount of space debris, with thousands of trackable fragments posing hazards to satellites and human spaceflight. The Fengyun 1C debris cloud has become a focal point in discussions about space sustainability and the need for international regulations to prevent the creation of new debris.

Loading next visibility...
Identifier
47003, 1999-025FAD
Orbit
SSO
Country
Flag of CNCN / PRC
Related business
Manufacturer
Unknown
Mission
Spacecraft
Bus & Motor
Unknown
Mass
Unknown
Launch date (UTC)
1999-05-10 (27 years ago)
Launch vehicle
Unknown
Launch site
Taiyaun Space Center, China (TSC)
Object type
Payload
Rocket body
Debris
Shape & HBR
Unknown shape, 0.1 m
Radar Cross Section
Small (<0.1 m²)

Expand to show TLE details & history
Last TLE update: 3 months ago

TLE from 3 months ago
0 FENGYUN 1C DEB *
1 47003U 99025FAD 25266.12357015  .00000456  00000-0  62906-3 0  9995
2 47003  98.8437 207.4893 0332182 263.7513  92.5692 13.42677725642249
Epoch: 2025-09-23T02:57Z
TLE epoch observation values (Epoch: 2025-09-23T02:57:56.460Z)
Latitude
0.00002°
Longitude
160.78613°
Altitude
1,121.475 km
Speed
7.282 km/s
True Right ascension
13h 49m 57s
True Declination
0° 00' 00"
Sunlit
Object was in daylight at epoch
Visualization orbit readout
Latitude
Unknown
Longitude
Unknown
Altitude
Unknown
Speed
Unknown
Apparent Right ascension
Unknown
Apparent Declination
Unknown
Sunlit
N/A
Visualization observer readout
Local Sidereal Time
20:38:40
Azimuth
Unknown
Elevation
Unknown
Doppler factor
Unknown
Orbital elements
Apogee altitude
1,344.883 km
Perigee altitude
848.289 km
Semi-major axis
7,474.723 km
Eccentricity
0.03322
Inclination
98.8437°
RAAN
207.4893°
Arg. of periapsis
263.7513°
True anomaly
96.36206°
Mean anomaly
92.5692°
Eccentric anomaly
94.46668°
Mean motion
3.35854 °/min
Orbital period
107.19 mins
BSTAR
0.00062906
Loading maneuver chart data...
Computing Atmospheric mass density...

Documentation

Showing up to 5 results
|